Location: Clerbrie Haute
(48.2000°N, 0.7333°W)
Time: 22:41:20
(UTC+00:00)

Daily predictions for brighter satellites

Satellite Brightness Start Highest point End
(mag) Time Altitude Azimuth Time Altitude Azimuth Time Altitude Azimuth
Meteor 2-10 4.4 17:57:29 10° SSE 18:02:50 47° E 18:08:04 10° NNE
ARGOS 4.1 17:58:19 10° S 18:03:34 55° W 18:08:52 10° NNW
ATLAS 2AS CENTAUR R/B 4.5 17:59:00 10° WNW 18:05:09 26° NNW 18:11:02 10° NE
YAOGAN 1 3.2 18:02:56 10° SE 18:06:50 34° ENE 18:10:44 10° N
Okean O Rocket 2.4 18:06:51 10° SE 18:10:42 32° ENE 18:14:36 10° N
Cosmos 2084 3.9 18:07:50 10° WSW 18:11:35 53° NW 18:15:21 10° NE
Lacrosse 4 Rocket 3.3 18:12:11 10° ESE 18:12:31 10° ESE 18:12:50 10° E
SKYMED 2 3.5 18:09:48 10° NNE 18:14:10 72° ESE 18:18:30 10° S
Nadezhda 4 Rocket 4.4 18:09:28 10° SSE 18:15:20 42° E 18:21:12 10° NNE
Cosmos 2285 Rocket 4.2 18:14:56 10° NNW 18:21:11 56° ENE 18:27:27 10° SE
PSLV R/B 3.6 18:19:13 10° SSE 18:22:53 82° ENE 18:26:34 10° NNW
Cosmos 1726 2.1 18:19:53 10° S 18:23:27 53° E 18:27:01 10° NNE
Cosmos 2322 Rocket 3.3 18:19:27 10° SSE 18:23:36 21° E 18:27:46 10° NE
USA 186 3.8 18:22:41 12° E 18:23:52 13° ENE 18:25:36 10° NNE
Cosmos 841 Rocket 3.9 18:22:45 10° NNW 18:27:54 66° WSW 18:32:58 10° S
Cosmos 1470 4.0 18:25:24 10° SE 18:28:16 20° E 18:31:09 10° NE
CZ-4B R/B 3.2 18:23:49 10° SSE 18:29:09 68° ENE 18:34:39 10° N
Cosmos 1980 Rocket 2.4 18:23:37 10° SSW 18:29:15 78° WNW 18:34:55 10° NNE
Cosmos 1378 Rocket 3.5 18:24:56 10° N 18:29:20 77° E 18:33:40 10° SSE
Cosmos 1975 Rocket 4.3 18:26:50 10° NNE 18:30:17 22° ENE 18:33:08 12° ESE
Timation 2 Rocket 4.2 18:24:28 10° NNW 18:30:56 77° WSW 18:37:04 10° SSE
ARGOS Delta rocket 4.0 18:26:13 10° NNE 18:31:26 61° E 18:36:20 10° S
DMSP B5D2-2 4.2 18:26:55 10° NNE 18:32:14 82° WNW 18:37:30 10° SSW
Cosmos 2292 Rocket 4.1 18:33:39 10° SSE 18:38:17 36° E 18:41:56 10° NNE
Meteor 2-14 Rocket 4.4 18:34:05 10° S 18:40:08 79° E 18:46:13 10° NNE
Cosmos 1733 Rocket 3.8 18:38:02 10° SSW 18:42:25 59° WNW 18:46:50 10° N
Cosmos 1850 Rocket 4.4 18:37:34 10° SSW 18:42:46 68° WNW 18:48:03 10° NNE
USA 215 3.4 18:38:26 10° NE 18:45:00 77° NNW 18:51:30 10° WSW
Cosmos 2369 4.5 18:41:24 10° SW 18:47:01 56° WNW 18:52:39 10° NNE
COBE Rocket 3.9 18:42:29 10° SSE 18:47:20 86° WSW 18:52:06 10° NNW
Cosmos 1844 Rocket 3.3 18:43:58 10° NNW 18:49:18 39° NE 18:52:59 18° ESE
Cosmos 2278 3.7 18:46:57 10° SSW 18:52:40 89° WNW 18:58:23 10° NNE
SL-16 R/B 2.4 18:48:07 10° S 18:53:31 48° ESE 18:58:57 10° NE
Cosmos 1570 Rocket 3.9 18:49:32 10° NNW 18:54:50 77° ENE 19:00:03 10° SSE
Landsat 5 4.4 18:51:58 10° NE 18:55:54 29° E 18:59:45 10° SSE
Cosmos 1092 Rocket 4.2 18:50:47 10° SSE 18:56:48 49° E 19:02:47 10° NNE
Resurs 01 Rocket 3.4 19:01:19 16° ENE 19:01:19 16° ENE 19:03:47 10° NNE
DMSP B5D1-3 4.4 18:56:17 10° NNE 19:01:24 69° ESE 19:06:30 10° S
COSMO-SKYMED 1 4.1 18:58:05 10° N 19:02:07 38° WNW 19:06:09 10° SW
Meteor 2-21 Rocket 4.3 18:56:48 10° S 19:02:50 82° E 19:08:55 10° N
SJ-6B 3.3 19:02:07 29° ESE 19:03:11 35° ENE 19:06:41 10° N
Cosmos 2278 Rocket 4.2 19:01:11 10° N 19:03:37 13° NNE 19:05:41 11° NE
HJ-1C 3.7 19:01:21 10° S 19:04:25 59° WSW 19:07:31 10° NNW
Cosmos 1437 Rocket 2.5 19:02:01 10° S 19:05:46 75° E 19:09:30 10° NNE
H-2A R/B 4.1 19:07:12 17° NE 19:07:12 17° NE 19:09:06 10° NNE
Cosmos 2263 Rocket 3.5 19:03:08 10° NW 19:08:26 41° WSW 19:13:43 10° S
Meteor 1-24 Rocket 3.5 19:05:05 10° N 19:10:23 68° ENE 19:15:45 10° SSE
Resurs 1-3 4.3 19:11:26 31° E 19:12:21 34° ENE 19:16:21 10° N
SL-4 R/B 3.2 19:10:53 10° WNW 19:15:08 43° SW 19:17:52 21° SSE
Meteor 2-16 Rocket 4.4 19:10:40 10° S 19:16:48 88° E 19:23:00 10° N
Feng Yun 1-1 Rocket 4.2 19:11:38 10° SSE 19:17:07 81° WSW 19:22:33 10° NNW
Cosmos 2084 Rocket 3.1 19:14:40 10° NW 19:18:31 84° NE 19:19:51 40° SE
USA 267 4.1 19:14:44 10° SSE 19:21:00 47° SW 19:27:17 10° WNW
ISS -0.9 19:20:34 10° WSW 19:21:59 12° SW 19:23:24 10° SSW
Okean-O 2.7 19:20:30 35° SE 19:21:59 52° ENE 19:26:18 10° N
Cosmos 1486 Rocket 4.4 19:18:06 10° S 19:23:03 41° ESE 19:28:02 10° NE
CZ-4 R/B 2.1 19:19:11 10° S 19:23:17 57° W 19:27:25 10° NNW
Cosmos 2208 Rocket 4.1 19:18:05 10° NNW 19:23:29 80° WSW 19:28:16 14° SSE
OBJECT-B 1.6 19:24:55 32° N 19:24:55 32° N 19:26:27 10° N
Cosmos 1844 3.8 19:18:27 10° NNW 19:23:57 57° ENE 19:26:12 34° ESE
IGS 5A 3.4 19:24:38 41° SE 19:25:51 61° ENE 19:29:56 10° N
DNEPR-1 R/B 4.0 19:22:27 10° SSW 19:26:57 51° ESE 19:30:36 20° NE
Meteor 1-22 Rocket 4.1 19:22:43 10° S 19:28:09 85° E 19:33:50 10° NNE
Helios 1B 4.4 19:25:31 10° NNE 19:29:52 86° ESE 19:34:12 10° SSW
Cosmos 1300 Rocket 3.6 19:30:15 49° ESE 19:30:36 50° E 19:34:51 10° NNE
Cosmos 1908 Rocket 4.4 19:26:37 10° SSW 19:30:49 51° WNW 19:35:05 10° N
CSL-04 Debris 4.0 19:28:02 18° SSE 19:32:08 81° ENE 19:37:33 10° NNW
Cosmos 1428 Rocket 4.4 19:26:09 10° S 19:32:21 86° E 19:38:39 10° N
Cosmos 1627 Rocket 4.3 19:29:43 10° S 19:35:49 83° E 19:41:59 10° N
Cosmos 2195 Rocket 4.5 19:29:51 10° S 19:36:06 86° W 19:42:27 10° N
Cosmos 2360 Rocket 2.3 19:32:36 10° S 19:38:03 51° ESE 19:43:30 10° NE
Cosmos 1782 Rocket 3.6 19:34:38 10° SSW 19:38:58 78° W 19:43:22 10° N
USA 81 4.0 19:33:47 10° N 19:39:06 89° E 19:43:22 16° S
Cosmos 1025 Rocket 3.0 19:38:48 10° NNW 19:43:08 80° W 19:44:51 36° S
Okean O Rocket 3.4 19:43:11 10° SSW 19:47:02 30° W 19:50:56 10° NNW
Cosmos 968 Rocket 4.2 19:44:06 10° SW 19:49:14 54° WNW 19:54:23 10° NNE
Lacrosse 4 Rocket 1.2 19:46:15 10° SSW 19:50:17 87° S 19:50:17 87° S
Cosmos 2026 Rocket 4.0 19:46:20 10° SSW 19:52:24 78° W 19:58:30 10° N
USA 186 2.8 19:55:51 46° W 19:55:51 46° W 19:59:02 10° NNW
CSL-04 Rocket 3.8 19:55:05 27° S 19:58:06 71° WSW 20:03:32 10° NNW
ATLAS 2AS CENTAUR R/B 4.2 19:52:34 10° NW 19:58:33 26° NNE 20:01:35 20° NE
MOS 1 4.3 20:01:33 56° ENE 20:01:46 56° ENE 20:07:19 10° N
Cosmos 1553 Rocket 3.9 19:57:29 10° N 20:03:52 87° ENE 20:06:34 38° S
Cosmos 1470 4.4 20:00:30 10° SW 20:04:00 33° WNW 20:07:32 10° N
Landsat 7 3.7 20:04:06 71° S 20:04:35 82° WSW 20:09:20 10° NNW
deb Chang Zheng 4 4.1 20:05:56 47° N 20:05:56 47° N 20:08:59 10° NNW
Cosmos 2322 Rocket 2.4 20:01:24 10° SW 20:07:05 70° WNW 20:12:49 10° NNE
SPOT 1/Viking Rocket 3.7 20:07:53 56° NE 20:07:53 56° NE 20:12:25 10° N
Cosmos 2237 4.5 20:02:14 10° SW 20:07:55 67° WNW 20:13:38 10° NNE
Cosmos 1975 Rocket 4.2 20:04:10 10° NNW 20:08:20 42° W 20:10:19 26° SW
NOSS 3-4 (A) 4.1 20:04:07 10° NW 20:10:44 53° NE 20:12:04 47° ENE
NOSS 3-4 (C) 4.1 20:04:14 10° NW 20:10:50 52° NE 20:12:10 47° ENE
Ariane Rocket 4.0 20:16:26 35° NNE 20:16:26 35° NNE 20:19:49 10° N
NOSS 3-3 (A) 3.8 20:15:08 10° SSW 20:20:03 68° S 20:20:03 68° S
NOSS 3-3 (C) 3.8 20:15:14 10° SSW 20:19:58 64° S 20:19:58 64° S
Aureole 1 Rocket 3.9 20:17:43 10° SSW 20:25:08 80° ESE 20:30:58 10° NNE
USA 281 4.1 20:27:40 33° NE 20:27:40 33° NE 20:33:12 10° NNW
USA 215 4.1 20:24:15 26° NE 20:27:34 44° N 20:33:41 10° W
Cosmos 1844 Rocket 3.7 20:27:57 10° NW 20:33:13 40° WSW 20:34:40 34° SW
Resurs 01 Rocket 3.0 20:38:53 36° NNW 20:38:53 36° NNW 20:41:34 10° NNW
SL-16 R/B 3.7 20:32:41 10° WSW 20:37:48 34° NW 20:42:58 10° NNE
Cosmos 2315 Rocket 4.4 20:32:49 10° N 20:37:56 53° NNE 20:37:56 53° NNE
Terra 4.1 20:42:43 15° NNE 20:42:43 15° NNE 20:43:41 10° N
Cosmos 1943 Rocket 4.1 20:36:25 10° N 20:38:59 17° NNE 20:38:59 17° NNE
Cosmos 2278 Rocket 3.3 20:43:49 10° NNW 20:47:32 35° N 20:47:32 35° N
Cosmos 2333 Rocket 4.4 21:18:31 16° NNE 21:18:31 16° NNE 21:19:36 10° NNE
Cosmos 2360 Rocket 3.7 21:17:14 10° WSW 21:22:16 32° NW 21:27:20 10° NNE
ATLAS 2AS CENTAUR R/B 3.7 21:44:04 10° NW 21:49:00 41° N 21:49:00 41° N
USA 215 4.4 22:11:36 37° NNW 22:11:36 37° NNW 22:15:58 10° WNW
